EST,Max TemperatureF,Mean TemperatureF,Min TemperatureF,Max Dew PointF,MeanDew PointF,Min DewpointF,Max Humidity, Mean Humidity, Min Humidity, Max Sea Level PressureIn, Mean Sea Level PressureIn, Min Sea Level PressureIn, Max VisibilityMiles, Mean VisibilityMiles, Min VisibilityMiles, Max Wind SpeedMPH, Mean Wind SpeedMPH, Max Gust SpeedMPH,PrecipitationIn, CloudCover, Events, WindDirDegrees
2013-11-1,76,63,50,64,58,46,93,66,38,29.84,29.79,29.71,10,9,2,14,2,23,0.15,5,Rain,189
2013-11-2,69,56,42,49,41,34,96,63,29,30.09,29.92,29.83,10,10,10,9,1,16,0.00,1,,340
2013-11-3,63,51,38,41,38,35,100,68,36,30.29,30.20,30.09,10,9,7,12,1,14,0.00,0,,12
2013-11-4,64,50,35,39,36,34,92,64,36,30.42,30.37,30.31,10,10,6,16,5,25,0.00,0,,117
2013-11-5,64,55,45,44,35,32,65,51,36,30.46,30.39,30.32,10,10,10,13,6,21,0.00,2,,95
2013-11-6,73,63,52,56,53,49,93,75,57,30.30,30.21,30.09,10,10,9,13,5,20,T,7,,135
2013-11-7,62,52,41,59,50,32,97,70,43,30.25,30.12,30.04,10,8,2,17,3,22,0.25,6,Rain,336
2013-11-8,60,46,31,32,29,23,89,58,26,30.38,30.30,30.26,10,10,8,12,2,16,0.00,0,,3
2013-11-9,57,44,31,43,36,30,92,64,36,30.37,30.30,30.24,10,10,8,9,1,12,0.00,1,,113
2013-11-10,70,56,41,42,39,35,96,62,28,30.31,30.26,30.21,10,9,6,15,2,20,0.00,1,,355
2013-11-11,67,50,32,39,34,29,89,58,26,30.33,30.24,30.18,10,10,10,10,2,17,0.00,1,,61
2013-11-12,59,45,31,41,30,15,92,66,40,30.50,30.29,30.15,10,10,9,21,7,31,0.00,3,,347
2013-11-13,49,35,21,20,16,11,75,48,21,30.62,30.53,30.48,10,10,10,12,2,15,0.00,0,,3
2013-11-14,58,39,20,28,21,15,92,56,20,30.52,30.42,30.31,10,10,10,9,2,13,0.00,0,,127
2013-11-15,50,41,32,47,39,23,93,69,45,30.30,30.24,30.17,10,8,4,10,3,16,0.10,7,Rain,91
2013-11-16,62,56,49,55,52,46,96,87,78,30.23,30.17,30.12,9,7,4,10,5,16,0.00,8,,106
2013-11-17,69,64,59,66,61,55,97,91,84,30.12,29.99,29.91,10,7,2,12,4,17,0.02,8,Rain,140
2013-11-18,70,61,51,67,49,28,93,59,24,30.09,29.98,29.89,10,8,2,14,5,20,0.45,4,Rain,341
2013-11-19,59,47,35,33,29,27,82,58,33,30.17,30.13,30.07,10,10,10,16,4,24,0.00,0,,358
2013-11-20,57,44,31,32,30,27,92,65,38,30.32,30.26,30.17,10,10,10,15,7,23,0.00,4,,96
2013-11-21,60,55,50,47,43,32,83,64,44,30.39,30.33,30.29,10,10,8,13,6,22,0.00,7,,104
2013-11-22,65,58,51,59,55,47,96,85,73,30.33,30.24,30.19,10,5,2,9,2,13,0.14,8,Rain,136
2013-11-23,59,49,39,57,43,21,93,71,48,30.32,30.23,30.16,10,9,2,14,7,22,0.00,5,,345
2013-11-24,43,34,25,20,15,10,63,46,29,30.53,30.43,30.32,10,10,10,17,6,28,0.00,0,,350
2013-11-25,43,33,22,34,18,8,92,60,27,30.47,30.36,30.21,10,9,4,14,6,22,0.10,5,Rain,91
2013-11-26,50,43,35,48,39,32,100,95,89,30.20,29.91,29.70,10,5,0,13,4,22,2.22,8,Fog-Rain,45
2013-11-27,41,33,25,36,25,16,85,68,51,30.31,30.00,29.75,10,10,7,15,6,26,0.03,5,Rain-Snow,335
2013-11-28,47,34,20,24,19,15,84,59,34,30.49,30.42,30.31,10,10,9,6,0,26,0.00,0,,-1
2013-11-29,57,39,21,31,23,18,92,58,24,30.56,30.51,30.45,10,10,9,8,1,12,0.00,0,,329
2013-11-30,52,40,27,29,26,23,100,66,32,30.56,30.46,30.35,10,10,9,5,4,8,0.00,0,,103